Location: *
(24.1434°N, 56.8729°E)
Time: 18:53:36
(UTC+00:00)

STARLINK-1101 - Pass Details

Date: 09 April 2020
Orbit: 549 x 551 km, 53.0° (Epoch: 06 June)

Event Time Altitude Azimuth Distance (km) Brightness Sun altitude
Rises 14:49:17 0° 326° (NNW) 2,712 7.9 -4.7°
Reaches altitude 10° 14:51:34 10° 331° (NNW) 1,817 6.9 -5.2°
Maximum altitude 14:55:36 53° 49° (NE) 672 3.9 -6.1°
Drops below altitude 10° 14:59:38 10° 127° (SE) 1,811 5.7 -7.0°
Enters shadow 15:00:27 - 129° (SE) 2,132 6.1 -7.2°
